Year,Month,Day,Hour,Minute,Value (Times are PST for temperature in C)
2018,05,06,00,00,13.10
2018,05,06,00,01,13.10
2018,05,06,00,02,13.10
2018,05,06,00,03,13.10
2018,05,06,00,04,13.10
2018,05,06,00,05,13.10
2018,05,06,00,06,13.10
2018,05,06,00,07,13.10
2018,05,06,00,08,13.10
2018,05,06,00,09,13.10
2018,05,06,00,10,13.10
2018,05,06,00,11,13.20
2018,05,06,00,12,13.20
2018,05,06,00,13,13.20
2018,05,06,00,14,13.20
2018,05,06,00,15,13.20
2018,05,06,00,16,13.20
2018,05,06,00,17,13.30
2018,05,06,00,18,13.30
2018,05,06,00,19,13.30
2018,05,06,00,20,13.30
2018,05,06,00,21,13.30
2018,05,06,00,22,13.30
2018,05,06,00,23,13.40
2018,05,06,00,24,13.40
2018,05,06,00,25,13.40
2018,05,06,00,26,13.40
2018,05,06,00,27,13.40
2018,05,06,00,28,13.40
2018,05,06,00,29,13.40
2018,05,06,00,30,13.40
2018,05,06,00,31,13.50
2018,05,06,00,32,13.50
2018,05,06,00,33,13.50
2018,05,06,00,34,13.50
2018,05,06,00,35,13.50
2018,05,06,00,36,13.50
2018,05,06,00,37,13.50
2018,05,06,00,38,13.50
2018,05,06,00,39,13.50
2018,05,06,00,40,13.50
2018,05,06,00,41,13.50
2018,05,06,00,42,13.50
2018,05,06,00,43,13.50
2018,05,06,00,44,13.50
2018,05,06,00,45,13.50
2018,05,06,00,46,13.50
2018,05,06,00,47,13.50
2018,05,06,00,48,13.50
2018,05,06,00,49,13.40
2018,05,06,00,50,13.40
2018,05,06,00,51,13.40
2018,05,06,00,52,13.40
2018,05,06,00,53,13.40
2018,05,06,00,54,13.40
2018,05,06,00,55,13.40
2018,05,06,00,56,13.40
2018,05,06,00,57,13.40
2018,05,06,00,58,13.40
2018,05,06,00,59,13.50
2018,05,06,01,00,13.50
2018,05,06,01,01,13.50
2018,05,06,01,02,13.50
2018,05,06,01,03,13.50
2018,05,06,01,04,13.50
2018,05,06,01,05,13.50
2018,05,06,01,06,13.50
2018,05,06,01,07,13.40
2018,05,06,01,08,13.40
2018,05,06,01,09,13.40
2018,05,06,01,10,13.40
2018,05,06,01,11,13.40
2018,05,06,01,12,13.40
2018,05,06,01,13,13.40
2018,05,06,01,14,13.40
2018,05,06,01,15,13.40
2018,05,06,01,16,13.40
2018,05,06,01,17,13.40
2018,05,06,01,18,13.40
2018,05,06,01,19,13.40
2018,05,06,01,20,13.40
2018,05,06,01,21,13.40
2018,05,06,01,22,13.40
2018,05,06,01,23,13.40
2018,05,06,01,24,13.40
2018,05,06,01,25,13.40
2018,05,06,01,26,13.40
2018,05,06,01,27,13.40
2018,05,06,01,28,13.40
2018,05,06,01,29,13.40
2018,05,06,01,30,13.40
2018,05,06,01,31,13.40
2018,05,06,01,32,13.40
2018,05,06,01,33,13.40
2018,05,06,01,34,13.50
2018,05,06,01,35,13.50
2018,05,06,01,36,13.50
2018,05,06,01,37,13.50
2018,05,06,01,38,13.50
2018,05,06,01,39,13.50
2018,05,06,01,40,13.50
2018,05,06,01,41,13.50
2018,05,06,01,42,13.50
2018,05,06,01,43,13.50
2018,05,06,01,44,13.50
2018,05,06,01,45,13.50
2018,05,06,01,46,13.50
2018,05,06,01,47,13.50
2018,05,06,01,48,13.40
2018,05,06,01,49,13.40
2018,05,06,01,50,13.40
2018,05,06,01,51,13.40
2018,05,06,01,52,13.30
2018,05,06,01,53,13.30
2018,05,06,01,54,13.30
2018,05,06,01,55,13.30
2018,05,06,01,56,13.30
2018,05,06,01,57,13.30
2018,05,06,01,58,13.30
2018,05,06,01,59,13.30
2018,05,06,02,00,13.30
2018,05,06,02,01,13.30
2018,05,06,02,02,13.30
2018,05,06,02,03,13.30
2018,05,06,02,04,13.30
2018,05,06,02,05,13.30
2018,05,06,02,06,13.30
2018,05,06,02,07,13.30
2018,05,06,02,08,13.30
2018,05,06,02,09,13.30
2018,05,06,02,10,13.30
2018,05,06,02,11,13.30
2018,05,06,02,12,13.30
2018,05,06,02,13,13.30
2018,05,06,02,14,13.30
2018,05,06,02,15,13.30
2018,05,06,02,16,13.30
2018,05,06,02,17,13.30
2018,05,06,02,18,13.30
2018,05,06,02,19,13.30
2018,05,06,02,20,13.30
2018,05,06,02,21,13.30
2018,05,06,02,22,13.30
2018,05,06,02,23,13.30
2018,05,06,02,24,13.30
2018,05,06,02,25,13.30
2018,05,06,02,26,13.30
2018,05,06,02,27,13.30
2018,05,06,02,28,13.30
2018,05,06,02,29,13.30
2018,05,06,02,30,13.20
2018,05,06,02,31,13.20
2018,05,06,02,32,13.10
2018,05,06,02,33,13.10
2018,05,06,02,34,13.10
2018,05,06,02,35,13.10
2018,05,06,02,36,13.00
2018,05,06,02,37,13.00
2018,05,06,02,38,13.00
2018,05,06,02,39,13.00
2018,05,06,02,40,12.90
2018,05,06,02,41,12.90
2018,05,06,02,42,12.90
2018,05,06,02,43,12.90
2018,05,06,02,44,12.80
2018,05,06,02,45,12.80
2018,05,06,02,46,12.80
2018,05,06,02,47,12.80
2018,05,06,02,48,12.80
2018,05,06,02,49,12.80
2018,05,06,02,50,12.80
2018,05,06,02,51,12.70
2018,05,06,02,52,12.70
2018,05,06,02,53,12.70
2018,05,06,02,54,12.70
2018,05,06,02,55,12.60
2018,05,06,02,56,12.60
2018,05,06,02,57,12.60
2018,05,06,02,58,12.60
2018,05,06,02,59,12.60
2018,05,06,03,00,12.60
2018,05,06,03,01,12.60
2018,05,06,03,02,12.60
2018,05,06,03,03,12.60
2018,05,06,03,04,12.60
2018,05,06,03,05,12.60
2018,05,06,03,06,12.60
2018,05,06,03,07,12.70
2018,05,06,03,08,12.70
2018,05,06,03,09,12.70
2018,05,06,03,10,12.70
2018,05,06,03,11,12.70
2018,05,06,03,12,12.70
2018,05,06,03,13,12.70
2018,05,06,03,14,12.70
2018,05,06,03,15,12.70
2018,05,06,03,16,12.60
2018,05,06,03,17,12.60
2018,05,06,03,18,12.60
2018,05,06,03,19,12.60
2018,05,06,03,20,12.60
2018,05,06,03,21,12.60
2018,05,06,03,22,12.60
2018,05,06,03,23,12.50
2018,05,06,03,24,12.50
2018,05,06,03,25,12.50
2018,05,06,03,26,12.50
2018,05,06,03,27,12.50
2018,05,06,03,28,12.50
2018,05,06,03,29,12.50
2018,05,06,03,30,12.50
2018,05,06,03,31,12.50
2018,05,06,03,32,12.40
2018,05,06,03,33,12.40
2018,05,06,03,34,12.40
2018,05,06,03,35,12.40
2018,05,06,03,36,12.40
2018,05,06,03,37,12.40
2018,05,06,03,38,12.40
2018,05,06,03,39,12.40
2018,05,06,03,40,12.40
2018,05,06,03,41,12.40
2018,05,06,03,42,12.50
2018,05,06,03,43,12.50
2018,05,06,03,44,12.50
2018,05,06,03,45,12.50
2018,05,06,03,46,12.50
2018,05,06,03,47,12.50
2018,05,06,03,48,12.50
2018,05,06,03,49,12.60
2018,05,06,03,50,12.60
2018,05,06,03,51,12.60
2018,05,06,03,52,12.70
2018,05,06,03,53,12.70
2018,05,06,03,54,12.70
2018,05,06,03,55,12.70
2018,05,06,03,56,12.80
2018,05,06,03,57,12.80
2018,05,06,03,58,12.80
2018,05,06,03,59,12.80
2018,05,06,04,00,12.80
2018,05,06,04,01,12.80
2018,05,06,04,02,12.80
2018,05,06,04,03,12.80
2018,05,06,04,04,12.80
2018,05,06,04,05,12.80
2018,05,06,04,06,12.80
2018,05,06,04,07,12.80
2018,05,06,04,08,12.80
2018,05,06,04,09,12.80
2018,05,06,04,10,12.80
2018,05,06,04,11,12.80
2018,05,06,04,12,12.80
2018,05,06,04,13,12.80
2018,05,06,04,14,12.80
2018,05,06,04,15,12.80
2018,05,06,04,16,12.80
2018,05,06,04,17,12.80
2018,05,06,04,18,12.70
2018,05,06,04,19,12.70
2018,05,06,04,20,12.70
2018,05,06,04,21,12.70
2018,05,06,04,22,12.70
2018,05,06,04,23,12.70
2018,05,06,04,24,12.60
2018,05,06,04,25,12.60
2018,05,06,04,26,12.60
2018,05,06,04,27,12.60
2018,05,06,04,28,12.60
2018,05,06,04,29,12.60
2018,05,06,04,30,12.60
2018,05,06,04,31,12.60
2018,05,06,04,32,12.60
2018,05,06,04,33,12.60
2018,05,06,04,34,12.60
2018,05,06,04,35,12.50
2018,05,06,04,36,12.50
2018,05,06,04,37,12.50
2018,05,06,04,38,12.50
2018,05,06,04,39,12.50
2018,05,06,04,40,12.50
2018,05,06,04,41,12.50
2018,05,06,04,42,12.50
2018,05,06,04,43,12.50
2018,05,06,04,44,12.50
2018,05,06,04,45,12.50
2018,05,06,04,46,12.40
2018,05,06,04,47,12.40
2018,05,06,04,48,12.40
2018,05,06,04,49,12.40
2018,05,06,04,50,12.40
2018,05,06,04,51,12.40
2018,05,06,04,52,12.40
2018,05,06,04,53,12.50
2018,05,06,04,54,12.50
2018,05,06,04,55,12.50
2018,05,06,04,56,12.50
2018,05,06,04,57,12.50
2018,05,06,04,58,12.50
2018,05,06,04,59,12.50
2018,05,06,05,00,12.50
2018,05,06,05,01,12.50
2018,05,06,05,02,12.50
2018,05,06,05,03,12.60
2018,05,06,05,04,12.60
2018,05,06,05,05,12.60
2018,05,06,05,06,12.60
2018,05,06,05,07,12.60
2018,05,06,05,08,12.60
2018,05,06,05,09,12.60
2018,05,06,05,10,12.60
2018,05,06,05,11,12.60
2018,05,06,05,12,12.60
2018,05,06,05,13,12.60
2018,05,06,05,14,12.60
2018,05,06,05,15,12.60
2018,05,06,05,16,12.60
2018,05,06,05,17,12.50
2018,05,06,05,18,12.50
2018,05,06,05,19,12.50
2018,05,06,05,20,12.50
2018,05,06,05,21,12.50
2018,05,06,05,22,12.50
2018,05,06,05,23,12.50
2018,05,06,05,24,12.50
2018,05,06,05,25,12.50
2018,05,06,05,26,12.50
2018,05,06,05,27,12.50
2018,05,06,05,28,12.50
2018,05,06,05,29,12.50
2018,05,06,05,30,12.50
2018,05,06,05,31,12.50
2018,05,06,05,32,12.50
2018,05,06,05,33,12.40
2018,05,06,05,34,12.40
2018,05,06,05,35,12.40
2018,05,06,05,36,12.40
2018,05,06,05,37,12.40
2018,05,06,05,38,12.30
2018,05,06,05,39,12.30
2018,05,06,05,40,12.30
2018,05,06,05,41,12.40
2018,05,06,05,42,12.40
2018,05,06,05,43,12.40
2018,05,06,05,44,12.40
2018,05,06,05,45,12.50
2018,05,06,05,46,12.50
2018,05,06,05,47,12.50
2018,05,06,05,48,12.60
2018,05,06,05,49,12.60
2018,05,06,05,50,12.60
2018,05,06,05,51,12.60
2018,05,06,05,52,12.60
2018,05,06,05,53,12.70
2018,05,06,05,54,12.70
2018,05,06,05,55,12.80
2018,05,06,05,56,12.80
2018,05,06,05,57,12.80
2018,05,06,05,58,12.80
2018,05,06,05,59,12.80
2018,05,06,06,00,12.80
2018,05,06,06,01,12.80
2018,05,06,06,02,12.80
2018,05,06,06,03,12.90
2018,05,06,06,04,12.90
2018,05,06,06,05,12.80
2018,05,06,06,06,12.80
2018,05,06,06,07,12.80
2018,05,06,06,08,12.80
2018,05,06,06,09,12.80
2018,05,06,06,10,12.80
2018,05,06,06,11,12.80
2018,05,06,06,12,12.70
2018,05,06,06,13,12.70
2018,05,06,06,14,12.70
2018,05,06,06,15,12.70
2018,05,06,06,16,12.70
2018,05,06,06,17,12.70
2018,05,06,06,18,12.70
2018,05,06,06,19,12.70
2018,05,06,06,20,12.70
2018,05,06,06,21,12.70
2018,05,06,06,22,12.70
2018,05,06,06,23,12.70
2018,05,06,06,24,12.70
2018,05,06,06,25,12.80
2018,05,06,06,26,12.80
2018,05,06,06,27,12.80
2018,05,06,06,28,12.80
2018,05,06,06,29,12.80
2018,05,06,06,30,12.80
2018,05,06,06,31,12.70
2018,05,06,06,32,12.60
2018,05,06,06,33,12.60
2018,05,06,06,34,12.50
2018,05,06,06,35,12.50
2018,05,06,06,36,12.40
2018,05,06,06,37,12.40
2018,05,06,06,38,12.40
2018,05,06,06,39,12.40
2018,05,06,06,40,12.40
2018,05,06,06,41,12.40
2018,05,06,06,42,12.40
2018,05,06,06,43,12.40
2018,05,06,06,44,12.40
2018,05,06,06,45,12.40
2018,05,06,06,46,12.40
2018,05,06,06,47,12.40
2018,05,06,06,48,12.50
2018,05,06,06,49,12.50
2018,05,06,06,50,12.60
2018,05,06,06,51,12.60
2018,05,06,06,52,12.60
2018,05,06,06,53,12.70
2018,05,06,06,54,12.70
2018,05,06,06,55,12.80
2018,05,06,06,56,12.80
2018,05,06,06,57,12.90
2018,05,06,06,58,12.90
2018,05,06,06,59,12.90
2018,05,06,07,00,13.00
2018,05,06,07,01,13.00
2018,05,06,07,02,13.00
2018,05,06,07,03,13.00
2018,05,06,07,04,13.10
2018,05,06,07,05,13.10
2018,05,06,07,06,13.10
2018,05,06,07,07,13.10
2018,05,06,07,08,13.20
2018,05,06,07,09,13.20
2018,05,06,07,10,13.20
2018,05,06,07,11,13.30
2018,05,06,07,12,13.30
2018,05,06,07,13,13.30
2018,05,06,07,14,13.30
2018,05,06,07,15,13.30
2018,05,06,07,16,13.40
2018,05,06,07,17,13.40
2018,05,06,07,18,13.50
2018,05,06,07,19,13.60
2018,05,06,07,20,13.60
2018,05,06,07,21,13.70
2018,05,06,07,22,13.80
2018,05,06,07,23,13.90
2018,05,06,07,24,14.00
2018,05,06,07,25,14.10
2018,05,06,07,26,14.20
2018,05,06,07,27,14.20
2018,05,06,07,28,14.30
2018,05,06,07,29,14.30
2018,05,06,07,30,14.40
2018,05,06,07,31,14.50
2018,05,06,07,32,14.60
2018,05,06,07,33,14.60
2018,05,06,07,34,14.60
2018,05,06,07,35,14.60
2018,05,06,07,36,14.60
2018,05,06,07,37,14.60
2018,05,06,07,38,14.60
2018,05,06,07,39,14.60
2018,05,06,07,40,14.60
2018,05,06,07,41,14.70
2018,05,06,07,42,14.70
2018,05,06,07,43,14.80
2018,05,06,07,44,14.90
2018,05,06,07,45,15.00
2018,05,06,07,46,15.10
2018,05,06,07,47,15.10
2018,05,06,07,48,15.20
2018,05,06,07,49,15.20
2018,05,06,07,50,15.30
2018,05,06,07,51,15.30
2018,05,06,07,52,15.30
2018,05,06,07,53,15.30
2018,05,06,07,54,15.30
2018,05,06,07,55,15.40
2018,05,06,07,56,15.40
2018,05,06,07,57,15.40
2018,05,06,07,58,15.50
2018,05,06,07,59,15.50
2018,05,06,08,00,15.50
2018,05,06,08,01,15.60
2018,05,06,08,02,15.60
2018,05,06,08,03,15.70
2018,05,06,08,04,15.70
2018,05,06,08,05,15.80
2018,05,06,08,06,15.80
2018,05,06,08,07,15.90
2018,05,06,08,08,16.00
2018,05,06,08,09,16.10
2018,05,06,08,10,16.20
2018,05,06,08,11,16.30
2018,05,06,08,12,16.40
2018,05,06,08,13,16.40
2018,05,06,08,14,16.30
2018,05,06,08,15,16.10
2018,05,06,08,16,15.90
2018,05,06,08,17,15.70
2018,05,06,08,18,15.60
2018,05,06,08,19,15.40
2018,05,06,08,20,15.30
2018,05,06,08,21,15.10
2018,05,06,08,22,15.00
2018,05,06,08,23,14.90
2018,05,06,08,24,14.80
2018,05,06,08,25,14.80
2018,05,06,08,26,14.80
2018,05,06,08,27,14.80
2018,05,06,08,28,14.70
2018,05,06,08,29,14.60
2018,05,06,08,30,14.60
2018,05,06,08,31,14.60
2018,05,06,08,32,14.60
2018,05,06,08,33,14.60
2018,05,06,08,34,14.60
2018,05,06,08,35,14.60
2018,05,06,08,36,14.60
2018,05,06,08,37,14.70
2018,05,06,08,38,14.70
2018,05,06,08,39,14.70
2018,05,06,08,40,14.70
2018,05,06,08,41,14.70
2018,05,06,08,42,14.80
2018,05,06,08,43,14.80
2018,05,06,08,44,14.80
2018,05,06,08,45,14.80
2018,05,06,08,46,14.90
2018,05,06,08,47,14.90
2018,05,06,08,48,14.90
2018,05,06,08,49,14.90
2018,05,06,08,50,15.00
2018,05,06,08,51,15.10
2018,05,06,08,52,15.10
2018,05,06,08,53,15.20
2018,05,06,08,54,15.20
2018,05,06,08,55,15.30
2018,05,06,08,56,15.40
2018,05,06,08,57,15.50
2018,05,06,08,58,15.60
2018,05,06,08,59,15.70
2018,05,06,09,00,15.80
2018,05,06,09,01,15.80
2018,05,06,09,02,15.90
2018,05,06,09,03,16.10
2018,05,06,09,04,16.10
2018,05,06,09,05,16.20
2018,05,06,09,06,16.30
2018,05,06,09,07,16.30
2018,05,06,09,08,16.40
2018,05,06,09,09,16.50
2018,05,06,09,10,16.60
2018,05,06,09,11,16.70
2018,05,06,09,12,16.70
2018,05,06,09,13,16.70
2018,05,06,09,14,16.60
2018,05,06,09,15,16.50
2018,05,06,09,16,16.40
2018,05,06,09,17,16.30
2018,05,06,09,18,16.30
2018,05,06,09,19,16.40
2018,05,06,09,20,16.50
2018,05,06,09,21,16.70
2018,05,06,09,22,16.90
2018,05,06,09,23,17.10
2018,05,06,09,24,17.20
2018,05,06,09,25,17.20
2018,05,06,09,26,17.20
2018,05,06,09,27,17.30
2018,05,06,09,28,17.30
2018,05,06,09,29,17.30
2018,05,06,09,30,17.30
2018,05,06,09,31,17.30
2018,05,06,09,32,17.40
2018,05,06,09,33,17.50
2018,05,06,09,34,17.70
2018,05,06,09,35,17.90
2018,05,06,09,36,18.20
2018,05,06,09,37,18.30
2018,05,06,09,38,18.40
2018,05,06,09,39,18.50
2018,05,06,09,40,18.50
2018,05,06,09,41,18.60
2018,05,06,09,42,18.60
2018,05,06,09,43,18.70
2018,05,06,09,44,18.80
2018,05,06,09,45,18.80
2018,05,06,09,46,18.90
2018,05,06,09,47,18.80
2018,05,06,09,48,18.80
2018,05,06,09,49,18.80
2018,05,06,09,50,18.80
2018,05,06,09,51,18.80
2018,05,06,09,52,18.90
2018,05,06,09,53,19.00
2018,05,06,09,54,19.10
2018,05,06,09,55,19.20
2018,05,06,09,56,19.30
2018,05,06,09,57,19.40
2018,05,06,09,58,19.40
2018,05,06,09,59,19.50
2018,05,06,10,00,19.60
2018,05,06,10,01,19.60
2018,05,06,10,02,19.60
2018,05,06,10,03,19.70
2018,05,06,10,04,19.60
2018,05,06,10,05,19.60
2018,05,06,10,06,19.60
2018,05,06,10,07,19.60
2018,05,06,10,08,19.60
2018,05,06,10,09,19.60
2018,05,06,10,10,19.50
2018,05,06,10,11,19.40
2018,05,06,10,12,19.30
2018,05,06,10,13,19.30
2018,05,06,10,14,19.30
2018,05,06,10,15,19.20
2018,05,06,10,16,19.30
2018,05,06,10,17,19.30
2018,05,06,10,18,19.30
2018,05,06,10,19,19.30
2018,05,06,10,20,19.30
2018,05,06,10,21,19.30
2018,05,06,10,22,19.30
2018,05,06,10,23,19.30
2018,05,06,10,24,19.30
2018,05,06,10,25,19.30
2018,05,06,10,26,19.30
2018,05,06,10,27,19.40
2018,05,06,10,28,19.40
2018,05,06,10,29,19.40
2018,05,06,10,30,19.50
2018,05,06,10,31,19.60
2018,05,06,10,32,19.60
2018,05,06,10,33,19.70
2018,05,06,10,34,19.70
2018,05,06,10,35,19.70
2018,05,06,10,36,19.80
2018,05,06,10,37,19.80
2018,05,06,10,38,19.90
2018,05,06,10,39,19.90
2018,05,06,10,40,19.90
2018,05,06,10,41,19.90
2018,05,06,10,42,19.90
2018,05,06,10,43,19.90
2018,05,06,10,44,19.90
2018,05,06,10,45,19.90
2018,05,06,10,46,19.90
2018,05,06,10,47,20.00
2018,05,06,10,48,20.10
2018,05,06,10,49,20.00
2018,05,06,10,50,20.00
2018,05,06,10,51,20.00
2018,05,06,10,52,19.90
2018,05,06,10,53,19.90
2018,05,06,10,54,19.90
2018,05,06,10,55,19.90
2018,05,06,10,56,19.90
2018,05,06,10,57,19.90
2018,05,06,10,58,20.00
2018,05,06,10,59,20.10
2018,05,06,11,00,20.10
2018,05,06,11,01,20.20
2018,05,06,11,02,20.20
2018,05,06,11,03,20.20
2018,05,06,11,04,20.20
2018,05,06,11,05,20.20
2018,05,06,11,06,20.20
2018,05,06,11,07,20.20
2018,05,06,11,08,20.10
2018,05,06,11,09,20.00
2018,05,06,11,10,19.90
2018,05,06,11,11,19.90
2018,05,06,11,12,19.80
2018,05,06,11,13,19.80
2018,05,06,11,14,19.80
2018,05,06,11,15,19.70
2018,05,06,11,16,19.70
2018,05,06,11,17,19.60
2018,05,06,11,18,19.60
2018,05,06,11,19,19.60
2018,05,06,11,20,19.50
2018,05,06,11,21,19.50
2018,05,06,11,22,19.40
2018,05,06,11,23,19.50
2018,05,06,11,24,19.50
2018,05,06,11,25,19.60
2018,05,06,11,26,19.70
2018,05,06,11,27,19.80
2018,05,06,11,28,19.90
2018,05,06,11,29,20.00
2018,05,06,11,30,20.10
2018,05,06,11,31,20.20
2018,05,06,11,32,20.30
2018,05,06,11,33,20.30
2018,05,06,11,34,20.40
2018,05,06,11,35,20.50
2018,05,06,11,36,20.60
2018,05,06,11,37,20.70
2018,05,06,11,38,20.70
2018,05,06,11,39,20.70
2018,05,06,11,40,20.80
2018,05,06,11,41,20.80
2018,05,06,11,42,20.80
2018,05,06,11,43,20.80
2018,05,06,11,44,20.80
2018,05,06,11,45,20.80
2018,05,06,11,46,20.80
2018,05,06,11,47,20.70
2018,05,06,11,48,20.70
2018,05,06,11,49,20.70
2018,05,06,11,50,20.70
2018,05,06,11,51,20.80
2018,05,06,11,52,20.80
2018,05,06,11,53,20.90
2018,05,06,11,54,20.90
2018,05,06,11,55,21.00
2018,05,06,11,56,21.00
2018,05,06,11,57,20.80
2018,05,06,11,58,20.70
2018,05,06,11,59,20.60
2018,05,06,12,00,20.50
2018,05,06,12,01,20.40
2018,05,06,12,02,20.40
2018,05,06,12,03,20.50
2018,05,06,12,04,20.50
2018,05,06,12,05,20.60
2018,05,06,12,06,20.70
2018,05,06,12,07,20.80
2018,05,06,12,08,20.90
2018,05,06,12,09,21.00
2018,05,06,12,10,21.10
2018,05,06,12,11,21.10
2018,05,06,12,12,21.10
2018,05,06,12,13,21.00
2018,05,06,12,14,20.90
2018,05,06,12,15,20.90
2018,05,06,12,16,21.00
2018,05,06,12,17,21.10
2018,05,06,12,18,21.30
2018,05,06,12,19,21.50
2018,05,06,12,20,21.60
2018,05,06,12,21,21.80
2018,05,06,12,22,21.90
2018,05,06,12,23,21.90
2018,05,06,12,24,21.90
2018,05,06,12,25,21.90
2018,05,06,12,26,21.90
2018,05,06,12,27,21.90
2018,05,06,12,28,22.00
2018,05,06,12,29,22.00
2018,05,06,12,30,22.00
2018,05,06,12,31,22.00
2018,05,06,12,32,22.00
2018,05,06,12,33,22.00
2018,05,06,12,34,22.00
2018,05,06,12,35,22.00
2018,05,06,12,36,22.20
2018,05,06,12,37,22.30
2018,05,06,12,38,22.50
2018,05,06,12,39,22.60
2018,05,06,12,40,22.80
2018,05,06,12,41,22.90
2018,05,06,12,42,23.00
2018,05,06,12,43,22.90
2018,05,06,12,44,22.80
2018,05,06,12,45,22.60
2018,05,06,12,46,22.40
2018,05,06,12,47,22.30
2018,05,06,12,48,22.40
2018,05,06,12,49,22.40
2018,05,06,12,50,22.40
2018,05,06,12,51,22.30
2018,05,06,12,52,22.30
2018,05,06,12,53,22.40
2018,05,06,12,54,22.40
2018,05,06,12,55,22.30
2018,05,06,12,56,22.20
2018,05,06,12,57,22.30
2018,05,06,12,58,22.30
2018,05,06,12,59,22.30
2018,05,06,13,00,22.20
2018,05,06,13,01,22.20
2018,05,06,13,02,22.10
2018,05,06,13,03,22.00
2018,05,06,13,04,21.80
2018,05,06,13,05,21.60
2018,05,06,13,06,21.40
2018,05,06,13,07,21.30
2018,05,06,13,08,21.30
2018,05,06,13,09,21.20
2018,05,06,13,10,21.10
2018,05,06,13,11,21.10
2018,05,06,13,12,21.10
2018,05,06,13,13,21.10
2018,05,06,13,14,21.20
2018,05,06,13,15,21.30
2018,05,06,13,16,21.30
2018,05,06,13,17,21.30
2018,05,06,13,18,21.30
2018,05,06,13,19,21.30
2018,05,06,13,20,21.30
2018,05,06,13,21,21.40
2018,05,06,13,22,21.40
2018,05,06,13,23,21.40
2018,05,06,13,24,21.30
2018,05,06,13,25,21.30
2018,05,06,13,26,21.30
2018,05,06,13,27,21.40
2018,05,06,13,28,21.40
2018,05,06,13,29,21.30
2018,05,06,13,30,21.30
2018,05,06,13,31,21.20
2018,05,06,13,32,21.20
2018,05,06,13,33,21.10
2018,05,06,13,34,21.10
2018,05,06,13,35,21.10
2018,05,06,13,36,21.20
2018,05,06,13,37,21.20
2018,05,06,13,38,21.10
2018,05,06,13,39,21.00
2018,05,06,13,40,20.90
2018,05,06,13,41,20.70
2018,05,06,13,42,20.60
2018,05,06,13,43,20.60
2018,05,06,13,44,20.70
2018,05,06,13,45,20.70
2018,05,06,13,46,20.70
2018,05,06,13,47,20.80
2018,05,06,13,48,20.90
2018,05,06,13,49,21.00
2018,05,06,13,50,21.10
2018,05,06,13,51,21.10
2018,05,06,13,52,21.10
2018,05,06,13,53,21.20
2018,05,06,13,54,21.20
2018,05,06,13,55,21.10
2018,05,06,13,56,21.10
2018,05,06,13,57,21.10
2018,05,06,13,58,21.10
2018,05,06,13,59,21.10
2018,05,06,14,00,20.90
2018,05,06,14,01,20.70
2018,05,06,14,02,20.40
2018,05,06,14,03,20.20
2018,05,06,14,04,20.20
2018,05,06,14,05,20.30
2018,05,06,14,06,20.40
2018,05,06,14,07,20.40
2018,05,06,14,08,20.20
2018,05,06,14,09,20.10
2018,05,06,14,10,19.90
2018,05,06,14,11,19.80
2018,05,06,14,12,19.70
2018,05,06,14,13,19.60
2018,05,06,14,14,19.40
2018,05,06,14,15,19.20
2018,05,06,14,16,19.10
2018,05,06,14,17,18.90
2018,05,06,14,18,18.80
2018,05,06,14,19,18.60
2018,05,06,14,20,18.40
2018,05,06,14,21,18.10
2018,05,06,14,22,18.10
2018,05,06,14,23,18.10
2018,05,06,14,24,18.20
2018,05,06,14,25,18.30
2018,05,06,14,26,18.30
2018,05,06,14,27,18.30
2018,05,06,14,28,18.20
2018,05,06,14,29,18.00
2018,05,06,14,30,17.90
2018,05,06,14,31,17.90
2018,05,06,14,32,18.00
2018,05,06,14,33,18.20
2018,05,06,14,34,18.30
2018,05,06,14,35,18.40
2018,05,06,14,36,18.50
2018,05,06,14,37,18.50
2018,05,06,14,38,18.50
2018,05,06,14,39,18.60
2018,05,06,14,40,18.80
2018,05,06,14,41,18.90
2018,05,06,14,42,18.90
2018,05,06,14,43,18.80
2018,05,06,14,44,18.80
2018,05,06,14,45,18.80
2018,05,06,14,46,18.90
2018,05,06,14,47,19.00
2018,05,06,14,48,19.10
2018,05,06,14,49,19.10
2018,05,06,14,50,19.10
2018,05,06,14,51,19.00
2018,05,06,14,52,19.00
2018,05,06,14,53,18.90
2018,05,06,14,54,18.90
2018,05,06,14,55,18.90
2018,05,06,14,56,19.10
2018,05,06,14,57,19.10
2018,05,06,14,58,19.20
2018,05,06,14,59,19.30
2018,05,06,15,00,19.20
2018,05,06,15,01,19.20
2018,05,06,15,02,19.20
2018,05,06,15,03,19.10
2018,05,06,15,04,19.00
2018,05,06,15,05,18.90
2018,05,06,15,06,18.90
2018,05,06,15,07,18.80
2018,05,06,15,08,18.90
2018,05,06,15,09,19.10
2018,05,06,15,10,19.10
2018,05,06,15,11,19.10
2018,05,06,15,12,19.10
2018,05,06,15,13,19.30
2018,05,06,15,14,19.40
2018,05,06,15,15,19.50
2018,05,06,15,16,19.60
2018,05,06,15,17,19.70
2018,05,06,15,18,19.90
2018,05,06,15,19,19.80
2018,05,06,15,20,19.80
2018,05,06,15,21,19.80
2018,05,06,15,22,19.80
2018,05,06,15,23,19.70
2018,05,06,15,24,19.50
2018,05,06,15,25,19.40
2018,05,06,15,26,19.40
2018,05,06,15,27,19.30
2018,05,06,15,28,19.30
2018,05,06,15,29,19.20
2018,05,06,15,30,19.10
2018,05,06,15,31,19.10
2018,05,06,15,32,19.10
2018,05,06,15,33,19.10
2018,05,06,15,34,19.20
2018,05,06,15,35,19.20
2018,05,06,15,36,19.20
2018,05,06,15,37,19.30
2018,05,06,15,38,19.40
2018,05,06,15,39,19.50
2018,05,06,15,40,19.60
2018,05,06,15,41,19.70
2018,05,06,15,42,19.80
2018,05,06,15,43,19.80
2018,05,06,15,44,19.80
2018,05,06,15,45,19.90
2018,05,06,15,46,19.90
2018,05,06,15,47,19.90
2018,05,06,15,48,19.90
2018,05,06,15,49,20.00
2018,05,06,15,50,20.10
2018,05,06,15,51,20.10
2018,05,06,15,52,20.10
2018,05,06,15,53,20.20
2018,05,06,15,54,20.30
2018,05,06,15,55,20.20
2018,05,06,15,56,20.20
2018,05,06,15,57,20.20
2018,05,06,15,58,20.10
2018,05,06,15,59,19.90
2018,05,06,16,00,19.90
2018,05,06,16,01,19.90
2018,05,06,16,02,20.00
2018,05,06,16,03,20.10
2018,05,06,16,04,20.10
2018,05,06,16,05,20.10
2018,05,06,16,06,20.10
2018,05,06,16,07,20.00
2018,05,06,16,08,19.80
2018,05,06,16,09,19.70
2018,05,06,16,10,19.50
2018,05,06,16,11,19.40
2018,05,06,16,12,19.30
2018,05,06,16,13,19.20
2018,05,06,16,14,19.20
2018,05,06,16,15,19.20
2018,05,06,16,16,19.20
2018,05,06,16,17,19.20
2018,05,06,16,18,19.10
2018,05,06,16,19,19.00
2018,05,06,16,20,18.90
2018,05,06,16,21,18.90
2018,05,06,16,22,18.90
2018,05,06,16,23,18.80
2018,05,06,16,24,18.70
2018,05,06,16,25,18.60
2018,05,06,16,26,18.60
2018,05,06,16,27,18.60
2018,05,06,16,28,18.60
2018,05,06,16,29,18.60
2018,05,06,16,30,18.60
2018,05,06,16,31,18.60
2018,05,06,16,32,18.60
2018,05,06,16,33,18.60
2018,05,06,16,34,18.60
2018,05,06,16,35,18.50
2018,05,06,16,36,18.40
2018,05,06,16,37,18.40
2018,05,06,16,38,18.30
2018,05,06,16,39,18.30
2018,05,06,16,40,18.30
2018,05,06,16,41,18.30
2018,05,06,16,42,18.30
2018,05,06,16,43,18.20
2018,05,06,16,44,18.20
2018,05,06,16,45,18.20
2018,05,06,16,46,18.10
2018,05,06,16,47,18.00
2018,05,06,16,48,17.90
2018,05,06,16,49,17.90
2018,05,06,16,50,17.80
2018,05,06,16,51,17.80
2018,05,06,16,52,17.80
2018,05,06,16,53,17.80
2018,05,06,16,54,17.80
2018,05,06,16,55,17.80
2018,05,06,16,56,17.90
2018,05,06,16,57,17.90
2018,05,06,16,58,17.90
2018,05,06,16,59,17.90
2018,05,06,17,00,18.00
2018,05,06,17,01,18.10
2018,05,06,17,02,18.10
2018,05,06,17,03,18.10
2018,05,06,17,04,18.10
2018,05,06,17,05,18.20
2018,05,06,17,06,18.20
2018,05,06,17,07,18.20
2018,05,06,17,08,18.20
2018,05,06,17,09,18.20
2018,05,06,17,10,18.20
2018,05,06,17,11,18.20
2018,05,06,17,12,18.20
2018,05,06,17,13,18.20
2018,05,06,17,14,18.30
2018,05,06,17,15,18.30
2018,05,06,17,16,18.40
2018,05,06,17,17,18.40
2018,05,06,17,18,18.50
2018,05,06,17,19,18.50